Detroit Lakes, MN

5:28 PM CDT on August 20, 2017 (GMT -0500)
Detroit Lakes

Weather History for KDTL - October, 2011

Change the Weather History Date:

Sunday, October 9, 2011

  Actual Average Record
Temperature  
Mean Temperature 58 °F -  
Max Temperature 64 °F 57 °F 83 °F (1936)
Min Temperature 51 °F 35 °F 17 °F (1964)
Degree Days  
Heating Degree Days 8    
Growing Degree Days 8 (Base 50)    
Moisture  
Dew Point 50 °F    
Average Humidity 81    
Maximum Humidity 94    
Minimum Humidity 72    
Precipitation  
Precipitation 0.13 in - - ()
Sea Level Pressure  
Sea Level Pressure 30.20 in    
Wind  
Wind Speed 4 mph (East)    
Max Wind Speed 12 mph    
Max Gust Speed 17 mph    
Visibility 10 miles    
Events Rain    
Averages and records for this station are not official NWS values.
T = Trace of Precipitation, MM = Missing Value Source: NWS Daily Summary

Daily Weather History Graph

Daily Weather History Graph

Search for Another Location

Airport or City:

Trip Planner

Search our weather history database for the weather conditions in past years. The results will help you decide how hot, cold, wet, or windy it might be!

Date:

Astronomy

Oct. 09, 2011 Rise Set
Actual Time 7:32 AM CDT 6:48 PM CDT
Civil Twilight 7:02 AM CDT 7:18 PM CDT
Nautical Twilight 6:27 AM CDT 7:53 PM CDT
Astronomical Twilight 5:51 AM CDT 8:28 PM CDT
Moon 5:29 PM CDT (10/9) 5:12 AM CDT (10/9)
Length of Visible Light 12h 16m
Length of Day
11h 15m
Waxing Gibbous, 95% of the Moon is Illuminated
Oct 9
Waxing Gibbous
Oct 11
Full
Oct 19
Last Quarter
Oct 26
New
Nov 2
First Quarter

Hourly Weather History & Observations

Time (CDT) Temp. Dew Point Humidity Pressure Visibility Wind Dir Wind Speed Gust Speed Precip Events Conditions
12:13 AM 53.6 °F 46.4 °F 77% 30.18 in 10.0 mi NNW 3.5 mph - N/A   Clear
12:34 AM 53.6 °F 46.4 °F 77% 30.19 in 10.0 mi Calm Calm - N/A   Clear
12:53 AM 53.6 °F 46.4 °F 77% 30.20 in 10.0 mi Calm Calm - N/A   Clear
1:13 AM 53.6 °F 46.4 °F 77% 30.20 in 10.0 mi NNW 3.5 mph - N/A   Clear
1:34 AM 53.6 °F 46.4 °F 77% 30.20 in 10.0 mi NW 3.5 mph - N/A   Clear
1:53 AM 53.6 °F 46.4 °F 77% 30.20 in 10.0 mi Calm Calm - N/A   Clear
2:13 AM 53.6 °F 46.4 °F 77% 30.20 in 10.0 mi Calm Calm - N/A   Clear
2:34 AM 53.6 °F 46.4 °F 77% 30.20 in 10.0 mi Calm Calm - N/A   Clear
2:53 AM 53.6 °F 46.4 °F 77% 30.20 in 10.0 mi Calm Calm - N/A   Clear
3:13 AM 53.6 °F 46.4 °F 77% 30.21 in 10.0 mi Calm Calm - N/A   Clear
3:34 AM 53.6 °F 46.4 °F 77% 30.21 in 10.0 mi Calm Calm - N/A   Clear
4:13 AM 53.6 °F 46.4 °F 77% 30.22 in 10.0 mi North 3.5 mph - N/A   Clear
4:34 AM 51.8 °F 46.4 °F 82% 30.22 in 10.0 mi Calm Calm - N/A   Clear
4:53 AM 51.8 °F 46.4 °F 82% 30.23 in 10.0 mi Calm Calm - N/A   Clear
5:14 AM 51.8 °F 46.4 °F 82% 30.22 in 10.0 mi NNE 3.5 mph - N/A   Clear
5:33 AM 53.6 °F 48.2 °F 82% 30.23 in 10.0 mi Calm Calm - N/A   Clear
5:53 AM 53.6 °F 46.4 °F 77% 30.23 in 10.0 mi NE 5.8 mph - N/A   Clear
6:14 AM 51.8 °F 46.4 °F 82% 30.23 in 10.0 mi NE 5.8 mph - N/A   Clear
6:34 AM 53.6 °F 46.4 °F 77% 30.25 in 10.0 mi East 3.5 mph - N/A   Clear
6:53 AM 53.6 °F 46.4 °F 77% 30.26 in 10.0 mi Calm Calm - N/A   Clear
7:14 AM 53.6 °F 46.4 °F 77% 30.26 in 10.0 mi ESE 3.5 mph - N/A   Scattered Clouds
8:14 AM 53.6 °F 46.4 °F 77% 30.27 in 10.0 mi Calm Calm - N/A Rain Rain
8:33 AM 53.6 °F 46.4 °F 77% 30.27 in 10.0 mi ESE 4.6 mph - N/A Rain Light Rain
8:53 AM 51.8 °F 48.2 °F 88% 30.26 in 10.0 mi East 4.6 mph - N/A Rain Light Rain
9:14 AM 51.8 °F 48.2 °F 88% 30.25 in 10.0 mi East 6.9 mph - N/A   Light Drizzle
9:34 AM 53.6 °F 48.2 °F 82% 30.25 in 10.0 mi East 6.9 mph - 0.01 in Rain Light Rain
9:53 AM 53.6 °F 50.0 °F 88% 30.26 in 10.0 mi East 5.8 mph - 0.01 in Rain Light Rain
9:55 AM 53.6 °F 50.0 °F 88% 30.26 in 10.0 mi East 5.8 mph - 0.01 in Rain Light Rain
10:14 AM 53.6 °F 50.0 °F 88% 30.25 in 10.0 mi ENE 5.8 mph - 0.01 in Rain Light Rain
10:33 AM 53.6 °F 50.0 °F 88% 30.25 in 10.0 mi ENE 4.6 mph - 0.02 in Rain Light Rain
10:53 AM 53.6 °F 50.0 °F 88% 30.25 in 10.0 mi East 6.9 mph - 0.02 in Rain Rain
11:14 AM 53.6 °F 50.0 °F 88% 30.25 in 10.0 mi East 5.8 mph - 0.01 in Rain Light Rain
11:33 AM 53.6 °F 51.8 °F 94% 30.25 in 7.0 mi East 3.5 mph - 0.02 in Rain Light Rain
11:53 AM 53.6 °F 51.8 °F 94% 30.26 in 5.0 mi ESE 5.8 mph - 0.06 in Rain Rain
11:54 AM 53.6 °F 51.8 °F 94% 30.25 in 5.0 mi ESE 4.6 mph - 0.06 in Rain Rain
12:13 PM 53.6 °F 51.8 °F 94% 30.23 in 5.0 mi East 6.9 mph - 0.04 in Rain Light Rain
12:34 PM 53.6 °F 51.8 °F 94% 30.22 in 10.0 mi East 8.1 mph - 0.04 in   Scattered Clouds
12:54 PM 53.6 °F 51.8 °F 94% 30.21 in 10.0 mi ESE 6.9 mph - 0.04 in   Clear
12:55 PM 53.6 °F 51.8 °F 94% 30.21 in 10.0 mi ESE 6.9 mph - 0.04 in   Clear
1:13 PM 55.4 °F 51.8 °F 88% 30.20 in 10.0 mi East 6.9 mph - N/A   Clear
1:34 PM 55.4 °F 51.8 °F 88% 30.19 in 10.0 mi ESE 8.1 mph - N/A   Clear
1:53 PM 57.2 °F 51.8 °F 82% 30.19 in 10.0 mi ESE 8.1 mph - N/A   Scattered Clouds
2:13 PM 59.0 °F 51.8 °F 77% 30.17 in 10.0 mi ESE 11.5 mph - N/A   Mostly Cloudy
2:34 PM 59.0 °F 51.8 °F 77% 30.16 in 10.0 mi ESE 8.1 mph 16.1 mph N/A   Mostly Cloudy
3:13 PM 59.0 °F 53.6 °F 82% 30.14 in 10.0 mi ESE 6.9 mph - N/A   Overcast
3:33 PM 60.8 °F 53.6 °F 77% 30.13 in 10.0 mi East 5.8 mph - N/A   Mostly Cloudy
3:53 PM 62.6 °F 53.6 °F 72% 30.12 in 10.0 mi East 8.1 mph - N/A   Clear
4:14 PM 62.6 °F 53.6 °F 72% 30.12 in 10.0 mi ESE 9.2 mph 17.3 mph N/A   Clear
4:33 PM 62.6 °F 53.6 °F 72% 30.12 in 10.0 mi ESE 9.2 mph - N/A   Clear
4:53 PM 62.6 °F 53.6 °F 72% 30.11 in 10.0 mi ESE 9.2 mph - N/A   Clear
5:13 PM 64.4 °F 55.4 °F 73% 30.10 in 10.0 mi ESE 9.2 mph - N/A   Clear
5:33 PM 64.4 °F 55.4 °F 73% 30.10 in 10.0 mi ESE 10.4 mph - N/A   Clear
6:33 PM 64.4 °F 55.4 °F 73% 30.09 in 10.0 mi ESE 10.4 mph - N/A   Clear
6:53 PM 64.4 °F 55.4 °F 73% 30.08 in 10.0 mi ESE 8.1 mph - N/A   Clear
7:53 PM 62.6 °F 55.4 °F 77% 30.07 in 10.0 mi ESE 8.1 mph - N/A   Scattered Clouds
8:14 PM 62.6 °F 55.4 °F 77% 30.07 in 10.0 mi ESE 11.5 mph 16.1 mph N/A   Clear
8:33 PM 62.6 °F 55.4 °F 77% 30.07 in 10.0 mi ESE 10.4 mph - N/A   Clear
8:54 PM 62.6 °F 57.2 °F 82% 30.07 in 10.0 mi ESE 11.5 mph - N/A   Scattered Clouds
9:13 PM 62.6 °F 57.2 °F 82% 30.06 in 10.0 mi ESE 12.7 mph - N/A   Scattered Clouds
9:33 PM 62.6 °F 57.2 °F 82% 30.06 in 10.0 mi ESE 12.7 mph - N/A   Clear
9:54 PM 62.6 °F 57.2 °F 82% 30.06 in 10.0 mi SE 11.5 mph - N/A   Clear
10:13 PM 62.6 °F 55.4 °F 77% 30.05 in 10.0 mi SE 11.5 mph 17.3 mph N/A   Clear
10:33 PM 62.6 °F 55.4 °F 77% 30.05 in 10.0 mi SE 11.5 mph - N/A   Clear
10:54 PM 62.6 °F 55.4 °F 77% 30.05 in 10.0 mi SE 11.5 mph - N/A   Clear
11:13 PM 62.6 °F 55.4 °F 77% 30.05 in 10.0 mi SE 12.7 mph 17.3 mph N/A   Clear
11:33 PM 62.6 °F 55.4 °F 77% 30.05 in 10.0 mi SE 10.4 mph - N/A   Clear
11:54 PM 60.8 °F 55.4 °F 82% 30.05 in 10.0 mi SE 12.7 mph - N/A   Clear